Wind_Speed
1 3 3 3 1 2 3 4 7 9 8 5 3 4 4 3 2 6 8 7 6 6 7 9 10 12 11 12 15 16 21 29 34 37 39 42 41 38 35 32 27 22 16 10 11 18 25 29 32 35 36 37 38 40 42 44 45 46 47 47 48 48 48 48 47 45 44 42 41 39 37 37 38 40 42 45 46 46 47 47 47 47 46 45 44 43 41
3 4 4 2 3 3 4 4 6 8 8 7 6 6 5 4 6 9 9 8 6 3 6 7 10 13 12 15 19 21 24 27 29 33 36 39 41 38 35 33 31 27 23 17 12 11 16 22 28 32 34 36 37 38 39 40 42 44 45 45 47 48 48 48 47 46 44 43 42 41 40 38 37 37 38 41 43 46 47 47 47 47 47 47 47 46 44
5 5 4 4 3 3 4 5 6 7 8 7 4 5 5 5 6 8 6 5 4 5 9 9 11 14 15 18 23 24 24 24 25 28 32 35 38 38 35 33 32 29 26 21 16 11 9 12 19 25 29 32 34 36 38 39 40 42 43 44 46 47 48 48 47 46 45 44 43 42 41 39 38 37 37 38 39 42 45 46 47 47 48 48 48 48 47
4 4 5 6 5 4 4 4 5 5 5 5 3 3 2 1 4 6 5 2 3 6 11 11 11 15 17 19 21 22 23 25 25 24 28 33 36 36 35 34 33 31 27 23 21 17 12 7 8 16 23 26 28 31 34 36 38 39 42 44 45 46 47 47 47 46 46 45 44 43 41 40 38 38 37 38 38 39 41 43 45 46 48 48 49 48 48
3 4 5 6 5 5 4 3 1 2 4 5 4 2 3 3 2 2 1 1 2 6 9 9 8 12 14 16 19 21 22 25 26 22 24 29 31 32 33 33 33 31 28 23 21 21 17 11 7 7 14 20 24 27 30 33 34 35 37 40 43 45 46 46 47 47 46 45 44 43 42 40 38 38 38 38 39 39 40 41 42 44 46 47 48 48 48
3 5 5 5 5 3 4 3 2 3 4 3 2 1 3 5 5 3 3 2 4 6 7 7 7 7 10 13 19 22 23 26 27 24 24 26 27 27 28 29 30 30 28 23 19 18 18 14 9 5 8 15 20 25 28 30 33 35 34 33 36 41 44 45 46 45 45 45 45 43 42 41 40 39 39 38 38 38 39 39 41 43 44 45 46 46 47
2 3 5 4 3 4 4 5 4 3 2 2 1 1 2 5 7 6 5 4 5 6 7 9 9 3 9 15 23 25 25 27 26 26 27 26 25 25 24 25 26 27 28 26 21 18 18 14 10 7 2 7 14 20 26 28 30 34 36 34 34 36 40 43 44 44 45 45 44 44 42 42 41 40 39 39 38 37 38 38 39 40 41 42 44 44 45
0 1 2 1 4 4 6 7 5 2 3 4 1 0 1 5 7 6 5 4 5 8 9 12 16 7 6 11 23 26 24 25 25 26 27 25 24 24 23 23 23 24 24 25 24 21 18 14 9 8 6 1 5 13 21 25 26 30 33 35 36 36 38 41 43 44 44 45 44 44 43 43 42 41 40 39 38 38 38 38 38 38 38 39 41 42 43
2 1 2 3 4 5 5 4 3 3 3 2 1 0 1 3 5 5 5 3 3 8 9 14 22 15 5 5 14 22 23 23 23 23 24 23 21 21 22 22 22 21 22 23 24 22 20 16 13 11 7 4 2 3 11 18 22 25 28 31 34 34 36 40 43 43 43 44 44 44 44 44 44 42 41 40 39 38 39 39 39 39 37 37 37 39 41
2 2 2 3 3 3 3 3 3 5 6 5 2 1 2 1 7 8 6 4 4 7 8 13 19 15 1 4 6 17 21 21 21 22 22 22 20 19 20 22 22 21 21 22 23 25 23 21 19 15 10 5 4 3 2 10 15 18 21 25 29 31 34 38 42 43 43 44 44 44 45 45 44 43 42 41 40 40 40 40 40 39 38 36 35 36 37
2 3 3 3 3 4 4 4 7 10 10 6 3 0 2 1 9 13 9 8 9 8 9 12 12 9 4 1 7 16 19 18 19 20 21 21 19 17 17 20 21 21 21 21 22 24 25 24 22 19 12 7 6 6 3 4 8 10 12 15 20 27 33 37 40 41 41 42 43 44 45 45 45 44 43 42 42 41 41 41 40 39 39 38 37 36 35
3 3 4 3 2 3 3 4 9 13 11 5 2 2 2 4 14 17 12 11 11 10 12 12 8 3 2 5 11 18 18 16 17 18 19 20 19 17 17 19 21 21 20 21 21 22 25 26 25 22 17 11 10 10 8 6 4 4 5 6 10 16 25 32 37 39 40 41 42 43 45 45 45 44 43 43 42 42 42 42 41 40 40 40 40 39 37
4 4 4 4 2 1 2 4 10 11 8 4 3 3 2 9 16 17 14 13 13 12 14 13 8 6 9 12 15 18 16 16 17 18 19 19 18 17 17 18 20 21 20 20 20 20 24 27 27 24 21 17 14 14 13 11 9 6 5 6 7 9 13 18 25 31 35 38 41 43 44 44 44 44 44 43 43 43 42 42 42 42 41 41 41 40 39
2 3 3 3 3 1 2 8 10 5 1 2 3 5 9 11 12 13 14 15 14 14 14 15 14 15 15 16 17 17 16 16 17 19 20 20 18 18 16 15 17 20 20 19 19 18 21 24 26 26 25 23 19 17 16 15 14 12 11 11 11 11 10 11 14 18 22 27 31 36 40 43 45 45 44 44 44 43 43 43 43 42 42 42 42 42 41
1 1 3 4 4 1 5 8 6 1 2 3 7 12 13 9 9 12 14 15 16 17 17 17 18 18 17 15 16 17 16 15 16 19 21 21 20 20 18 16 16 19 21 19 18 17 19 21 23 24 26 27 25 20 17 16 18 18 17 17 17 16 15 14 14 14 15 17 19 23 29 35 40 44 44 44 44 44 43 43 43 43 43 43 43 43 42
1 3 3 3 3 2 3 3 1 3 6 8 9 11 11 10 10 12 14 16 18 18 19 20 19 20 19 18 17 16 17 17 16 17 19 21 21 20 20 18 17 18 21 21 19 17 17 19 21 21 23 26 27 26 22 19 20 22 22 21 21 20 20 19 19 18 17 16 17 18 21 24 30 37 41 43 44 44 44 44 44 44 44 44 44 44 44
3 4 6 5 5 5 5 4 6 9 11 9 8 10 13 14 14 14 16 20 20 18 18 19 20 21 21 22 20 18 18 18 18 17 17 19 20 20 20 20 18 18 19 21 21 19 17 18 20 21 21 23 26 28 26 23 22 23 24 24 23 24 24 24 23 22 21 19 19 20 20 21 24 29 35 39 42 43 44 44 44 45 45 45 45 45 44
3 7 12 15 15 15 11 8 11 13 12 11 12 15 17 18 18 18 19 21 21 19 17 17 20 22 22 23 24 22 19 19 19 18 18 17 18 20 22 21 19 18 18 19 21 21 18 16 18 20 20 21 23 25 26 25 24 23 23 24 25 25 26 27 26 25 24 23 22 22 23 23 24 26 30 35 39 42 43 44 45 45 46 46 45 45 45
2 4 6 7 8 11 12 14 17 14 11 12 15 17 20 21 22 22 21 21 21 20 18 18 20 21 22 24 26 25 23 22 20 20 19 18 17 19 21 20 19 18 17 17 19 21 20 17 17 18 19 20 21 23 25 27 26 25 24 25 26 27 27 27 27 26 24 23 23 24 24 25 26 27 29 33 38 41 43 44 45 45 46 46 46 47 46
4 5 9 10 13 18 20 20 16 11 10 15 17 18 20 22 23 23 23 22 21 20 19 20 21 21 21 23 25 27 26 25 23 21 19 19 19 19 19 19 18 18 17 16 16 18 19 18 17 18 19 19 20 22 24 27 28 27 26 26 27 28 28 27 27 26 25 24 24 24 25 25 27 29 30 32 37 40 42 43 44 45 46 46 46 47 46
3 7 11 13 14 16 16 13 10 9 13 18 19 20 21 22 24 26 26 25 24 23 22 22 22 23 22 22 24 28 28 27 25 23 21 20 21 21 19 18 18 18 17 16 14 15 16 17 18 18 19 19 20 21 23 26 27 28 28 28 28 29 28 28 28 26 24 23 23 24 25 25 27 30 31 32 35 38 39 40 41 42 43 43 42 43 44
4 7 9 7 5 7 10 11 10 11 14 16 19 21 22 24 26 28 29 29 28 26 25 24 24 26 26 23 23 27 30 29 27 25 23 21 22 23 21 18 18 19 17 16 15 14 14 15 17 18 18 19 20 20 22 24 26 28 29 29 30 30 28 27 27 27 25 23 23 24 25 25 27 29 31 32 33 36 38 38 39 39 40 39 38 38 41
8 11 13 10 8 10 14 14 13 13 14 15 17 19 21 24 26 28 29 31 30 29 28 27 26 27 28 26 25 26 30 31 29 27 25 23 22 23 22 19 19 20 18 17 16 14 13 13 15 17 18 19 20 20 21 22 25 27 29 30 31 31 29 27 26 26 25 23 21 22 23 24 26 27 29 31 33 35 37 38 38 39 40 39 38 39 41
14 16 16 13 13 15 15 14 13 14 15 16 18 19 21 24 27 29 29 30 30 30 31 30 28 28 29 28 27 28 31 31 30 29 27 24 21 22 22 20 20 21 20 18 17 15 13 13 14 16 18 19 20 20 21 21 23 25 26 28 29 29 29 27 25 24 23 21 19 19 20 22 24 25 26 29 32 34 37 39 40 41 41 41 41 41 42
19 19 16 13 15 17 15 13 14 15 15 16 17 19 21 24 27 28 29 29 29 29 31 32 32 30 30 30 30 31 32 32 31 30 29 26 22 21 22 20 20 21 22 21 18 16 14 12 13 14 17 18 19 20 20 21 22 23 23 25 26 26 26 24 22 20 20 19 18 17 18 20 22 23 24 28 32 34 36 39 42 43 44 44 44 44 43
23 21 17 14 16 17 16 16 16 15 14 16 17 19 22 24 27 28 29 30 30 29 30 32 32 30 29 29 29 29 29 29 28 28 28 27 24 22 21 19 19 21 22 21 19 17 15 13 13 14 15 17 19 19 19 19 20 21 22 24 25 26 25 24 22 21 21 20 19 18 18 18 21 22 23 26 31 34 36 39 42 44 45 45 45 46 45
20 20 17 15 15 16 16 16 15 15 16 17 19 21 23 26 28 30 30 29 30 29 28 28 28 27 28 28 27 27 26 25 25 26 27 27 24 22 20 18 18 21 22 21 20 19 16 15 14 14 14 16 17 18 19 19 19 20 21 23 26 27 28 27 26 24 23 21 20 19 18 18 20 23 23 24 29 33 36 39 41 43 44 45 45 45 45
17 18 18 16 15 15 13 12 13 16 18 19 20 22 25 28 30 31 30 30 29 28 27 26 27 28 30 30 29 28 27 26 26 26 26 25 23 21 19 17 19 22 23 22 21 20 17 16 16 15 14 14 15 16 18 19 21 21 22 23 24 27 28 28 27 26 24 22 21 20 19 18 19 22 23 23 27 33 36 39 42 44 45 46 46 46 46
16 16 17 17 16 13 12 11 14 17 18 19 21 22 25 28 30 31 31 30 29 28 27 27 28 29 29 30 29 29 29 29 27 26 24 23 21 20 19 18 19 21 22 22 22 20 18 17 17 16 15 14 14 15 16 19 22 24 23 22 23 24 26 27 27 26 25 25 23 22 21 19 20 23 25 25 27 31 35 39 42 44 45 46 46 46 46
17 14 14 14 13 11 12 14 15 16 17 19 21 23 25 27 30 31 31 30 28 29 29 29 28 28 27 28 29 29 29 28 27 25 23 21 20 20 20 19 20 20 21 22 22 20 18 18 17 17 16 15 14 14 16 19 22 24 22 20 20 21 23 25 27 27 27 27 25 24 22 21 21 23 27 29 30 33 36 38 40 42 44 45 46 47 47
14 13 13 12 10 10 13 15 15 16 17 18 20 23 24 27 29 31 31 28 27 29 31 30 28 28 27 28 29 29 28 27 27 26 23 20 20 21 21 21 21 21 22 23 22 20 19 18 17 17 17 17 15 14 16 19 22 22 21 19 18 18 20 22 25 27 27 27 26 24 22 22 22 24 28 31 32 35 39 41 41 42 43 43 44 46 46
11 11 12 11 10 11 14 15 15 15 16 17 19 21 23 26 29 31 30 28 28 31 33 31 28 27 28 29 30 30 28 26 25 24 22 21 21 22 22 22 21 21 21 23 23 21 19 18 18 18 17 17 15 14 16 19 20 21 20 20 19 18 18 19 22 26 27 27 26 24 23 23 23 25 28 31 32 35 39 42 43 42 43 43 43 43 45
11 11 11 10 11 12 14 14 13 13 15 16 17 19 22 25 28 29 28 28 30 33 32 30 29 28 28 29 30 29 27 24 23 21 20 20 21 21 22 21 20 19 20 22 22 21 19 18 18 17 17 16 15 14 16 18 18 19 20 22 22 21 19 19 21 24 25 26 25 24 24 25 25 27 30 32 34 36 39 41 42 42 42 42 41 41 43
9 9 8 8 9 11 11 11 10 12 14 16 17 19 23 26 27 26 26 28 31 31 29 30 30 29 27 29 29 27 24 22 21 20 20 22 22 22 21 20 18 18 20 21 22 20 19 18 17 16 15 14 13 14 16 17 17 17 20 22 23 23 21 20 21 22 23 24 25 24 25 27 28 29 31 34 37 39 41 42 42 41 40 40 39 40 42
8 8 8 7 8 9 9 9 10 11 13 15 18 20 23 26 26 24 25 27 28 28 29 30 27 22 22 24 25 24 23 23 22 22 24 24 22 20 19 18 17 18 19 20 20 19 18 17 17 16 13 11 11 13 15 16 16 16 19 21 22 23 22 21 21 22 22 23 24 26 28 29 30 31 31 32 35 38 40 41 42 42 40 39 39 40 41
8 9 8 7 7 8 8 9 10 11 12 15 18 21 24 24 23 24 25 26 26 26 28 26 18 8 7 12 15 15 16 17 19 22 23 21 18 16 16 16 17 18 18 18 19 18 15 14 15 15 12 9 10 12 13 14 14 16 18 20 20 20 21 21 21 21 21 22 23 26 28 29 30 31 31 31 33 35 37 38 40 41 40 40 39 40 40
9 8 6 5 6 7 8 8 9 9 11 14 17 20 23 22 22 23 24 25 24 24 23 19 14 12 9 5 5 6 7 8 11 15 16 14 13 13 14 14 15 15 15 16 16 15 13 12 13 13 11 8 8 10 11 12 14 15 17 18 18 17 17 18 18 18 18 19 21 23 25 26 27 29 30 31 32 33 35 37 38 38 39 39 39 38 38
7 5 4 5 6 7 7 7 7 8 11 14 17 20 21 20 20 20 21 22 22 21 18 15 13 14 15 12 9 10 11 10 8 8 9 8 7 7 9 9 9 9 10 11 12 12 11 10 10 10 10 8 7 8 9 10 12 13 15 16 16 15 14 15 14 14 14 15 16 17 19 20 22 24 25 27 29 31 33 35 37 38 38 38 38 38 37
5 5 6 7 7 7 6 6 6 8 10 13 17 19 20 19 18 18 18 19 19 19 18 15 13 12 13 12 9 8 8 7 6 5 5 4 4 3 3 2 2 2 4 6 7 8 8 8 8 9 9 8 8 8 8 9 10 11 13 15 15 14 12 11 11 10 9 9 10 12 13 14 16 17 17 20 25 30 32 34 36 37 38 38 37 37 37
6 6 7 7 7 7 6 5 6 7 9 12 16 18 19 18 17 16 16 17 16 16 16 16 15 14 14 14 12 10 9 7 6 5 4 4 3 4 5 5 5 4 4 4 5 5 6 7 7 9 10 9 8 8 8 9 9 9 10 12 13 12 10 8 7 6 5 6 6 7 8 10 13 14 14 15 19 23 25 27 30 33 35 36 35 35 34
7 8 8 8 8 7 6 4 5 6 8 11 14 16 17 17 15 14 15 15 14 12 13 16 16 15 15 15 13 12 10 8 7 6 6 6 6 6 7 8 8 8 7 5 5 5 5 6 6 8 9 9 8 7 8 8 8 7 6 8 9 9 7 5 4 2 0 2 3 3 5 7 11 14 13 12 12 15 18 21 24 28 30 32 32 33 34
8 8 8 8 8 7 5 4 3 5 7 10 13 15 16 16 14 13 13 14 12 10 10 13 14 12 11 12 12 13 13 12 9 7 6 7 8 10 10 9 9 9 8 6 4 4 4 4 4 6 7 6 6 6 6 7 6 4 4 5 6 6 6 6 6 6 6 6 7 7 7 6 8 12 15 16 16 16 18 21 23 26 28 30 32 33 34
8 8 7 6 6 6 5 3 2 4 6 9 12 14 16 15 14 13 13 13 12 9 8 10 12 12 12 12 12 13 14 14 13 12 11 9 9 10 10 9 10 10 8 6 5 5 4 4 3 3 4 5 4 4 5 5 4 2 2 5 6 6 6 8 10 10 10 11 12 13 14 13 11 10 12 14 17 20 22 23 23 24 26 30 33 33 34
8 6 6 6 6 6 5 4 2 3 5 8 10 13 15 14 13 13 12 13 12 11 11 12 13 14 14 14 14 15 16 15 14 14 14 13 13 12 11 9 9 9 9 8 8 9 9 8 6 4 3 4 3 3 3 2 1 2 4 7 9 9 8 9 11 13 15 16 17 17 18 20 20 19 16 14 14 15 19 23 25 25 25 28 31 33 34
8 5 5 5 6 6 5 4 2 3 4 6 9 12 13 13 12 12 12 13 14 14 15 15 16 15 15 15 14 14 14 14 15 15 15 15 16 15 13 11 10 10 8 8 10 12 12 10 8 6 4 3 2 2 1 2 4 6 8 9 11 12 11 11 12 14 16 18 19 19 19 21 23 25 26 25 22 19 18 19 21 23 26 29 32 33 35
7 5 4 5 6 6 5 3 2 3 2 4 8 11 12 12 12 12 12 13 15 17 18 18 18 17 17 16 15 14 14 14 15 16 17 17 16 14 13 13 13 12 10 9 11 12 11 9 8 8 7 6 5 5 6 7 9 10 12 13 14 14 15 15 15 15 15 17 19 20 20 20 21 23 25 26 27 25 24 22 21 21 25 29 31 33 35
7 6 6 6 6 5 4 3 1 2 3 4 7 9 11 11 12 13 14 15 16 17 18 18 18 18 19 19 19 19 18 17 17 17 16 15 15 15 14 14 14 13 12 12 13 13 12 10 10 10 10 9 8 9 11 12 13 14 15 17 18 19 19 20 19 18 18 18 19 20 21 20 20 21 22 24 25 25 26 26 26 24 24 26 28 30 32
8 8 7 6 6 5 3 2 1 3 4 4 5 7 9 10 11 12 14 15 16 17 16 15 16 19 20 21 23 23 22 21 21 20 17 15 15 16 16 16 15 15 14 15 15 15 14 13 13 14 13 13 13 14 16 17 17 18 19 21 22 22 23 23 24 23 23 22 22 23 23 23 22 21 22 24 25 25 25 27 28 28 27 27 28 29 30
9 8 7 7 8 8 5 2 1 3 4 3 4 6 8 9 10 11 13 15 16 17 16 16 17 19 21 22 23 25 26 26 25 23 20 17 17 18 19 19 18 18 18 19 19 19 18 16 16 17 18 18 18 18 19 19 20 20 21 23 24 25 25 25 26 26 26 27 26 26 27 27 26 25 25 25 26 26 26 26 27 27 28 28 28 29 29
11 10 9 8 9 9 6 3 1 3 5 4 4 6 8 9 10 11 12 14 15 15 16 16 17 18 20 21 22 23 25 26 27 27 25 23 21 21 21 22 23 23 23 23 23 23 22 21 20 20 21 22 22 22 21 21 22 22 23 23 24 25 25 26 26 26 27 28 29 30 30 30 29 30 30 31 31 31 30 29 28 28 28 29 29 30 29
14 13 12 9 9 8 6 3 1 4 5 5 4 6 8 9 11 12 12 13 14 14 15 15 16 17 19 20 21 21 21 22 24 26 28 28 26 24 23 23 24 25 26 26 26 26 26 26 25 24 24 24 25 25 24 24 24 25 25 25 26 26 27 27 28 29 29 29 30 31 32 32 32 32 33 33 33 32 32 31 30 30 29 29 29 29 28
16 15 14 12 10 9 6 3 3 5 6 6 5 5 7 8 10 11 12 13 14 14 14 14 14 15 16 17 18 19 20 20 20 21 23 24 25 26 25 24 24 24 25 26 26 27 27 27 26 26 26 26 27 27 27 27 27 27 27 28 28 28 28 28 29 29 29 30 30 31 31 31 31 31 30 30 29 29 29 29 29 28 28 27 27 27 26
Wind_Direction
260 236 265 290 327 320 310 319 315 311 310 299 278 252 224 153 126 251 272 313 315 310 346 8 1 352 2 7 359 9 27 29 30 31 29 29 31 33 36 41 47 57 72 106 166 198 211 215 215 216 217 217 217 218 219 219 219 220 220 220 221 223 225 228 231 234 235 236 237 238 239 240 241 241 240 240 240 241 241 242 243 243 244 245 247 247 247
323 297 295 343 30 338 311 311 298 298 299 282 258 249 231 202 219 242 267 286 280 323 359 11 14 3 5 20 20 21 25 25 26 29 29 27 26 27 29 31 36 43 52 69 104 153 188 204 212 215 217 218 219 219 220 221 222 222 221 221 222 223 225 229 232 234 235 236 238 238 239 240 242 242 242 242 242 242 243 244 245 246 246 247 248 249 250
320 307 326 351 354 310 294 294 281 283 295 293 274 260 245 225 240 254 265 274 277 336 358 11 23 19 21 29 28 25 23 22 24 25 25 26 25 24 25 27 29 33 40 53 70 92 131 174 199 209 214 218 219 220 221 221 223 224 223 223 223 224 227 230 232 234 235 236 237 239 240 241 242 243 244 244 244 244 245 245 246 247 248 249 249 250 251
303 300 341 337 327 319 292 272 267 269 291 307 297 286 282 226 239 257 275 302 297 328 351 6 22 28 31 30 26 24 23 25 26 22 20 23 24 23 22 21 24 27 30 36 44 51 65 99 158 193 207 213 216 218 220 222 224 225 225 225 225 226 228 230 232 234 235 236 237 239 240 241 243 244 245 245 245 246 246 246 247 247 248 249 250 251 252
283 291 328 331 343 347 299 263 283 278 290 306 295 306 13 10 306 256 266 6 317 333 354 2 16 31 34 30 27 24 21 24 26 21 19 22 23 23 21 17 18 22 24 24 27 34 42 54 85 150 186 199 207 211 214 218 220 221 222 224 226 229 230 232 233 234 235 236 237 239 240 242 243 244 245 245 246 246 247 248 248 248 249 250 250 251 252
265 287 337 350 345 320 248 246 322 296 296 322 313 339 17 8 8 56 104 65 353 356 7 360 2 39 50 40 34 28 21 23 23 17 17 21 22 21 20 16 14 16 19 19 16 19 28 39 57 93 162 185 197 206 211 216 220 221 222 224 227 230 232 232 233 234 235 237 238 240 241 242 243 244 245 246 247 247 248 248 248 249 250 250 251 251 251
241 304 20 9 290 241 260 296 300 286 342 30 90 133 44 25 23 32 51 47 14 360 2 352 347 41 93 57 36 27 20 19 17 12 11 15 17 16 13 12 12 12 13 13 9 7 8 15 36 51 93 180 193 203 209 214 221 226 229 231 231 232 233 233 234 234 235 237 239 241 242 242 243 244 246 247 248 248 249 249 250 250 250 250 251 252 252
158 24 65 202 241 266 299 312 309 334 25 23 14 229 21 28 33 27 20 26 9 356 357 353 344 323 157 77 37 23 14 12 12 10 6 7 10 9 4 2 6 11 10 5 4 6 1 351 357 18 22 71 189 207 212 214 218 225 231 233 234 233 232 234 235 236 237 238 239 241 242 242 243 244 246 247 249 249 249 249 251 251 250 250 251 252 252
146 147 217 251 321 325 314 328 358 18 7 347 2 229 287 14 39 26 3 351 357 3 3 358 352 337 220 141 33 16 7 4 4 2 2 3 2 359 356 354 357 4 6 1 359 1 360 352 346 348 355 24 77 201 217 216 217 223 228 232 233 231 230 233 237 238 238 239 240 241 241 241 243 245 246 248 250 250 249 250 250 250 250 251 252 252 252
137 148 252 296 336 300 267 269 307 328 311 277 229 182 246 359 26 12 359 338 338 2 8 3 1 359 342 177 4 1 0 358 356 354 355 358 357 350 345 344 346 351 355 355 353 350 350 354 354 347 336 334 11 29 204 210 214 222 228 232 234 232 231 234 239 241 241 242 242 242 242 242 244 246 247 249 250 251 251 251 252 252 252 252 253 253 253
139 153 226 244 223 236 246 264 292 315 314 278 217 202 241 359 8 359 354 343 335 346 5 11 14 17 23 295 324 343 350 350 349 349 348 350 352 346 337 331 333 338 342 342 341 338 337 344 352 353 343 315 309 330 323 223 213 216 226 235 239 239 237 237 238 241 244 245 245 244 244 245 246 247 248 250 251 251 251 252 253 253 253 252 253 254 255
195 190 223 225 218 239 229 259 298 319 328 310 258 250 251 349 351 348 348 344 338 340 350 4 28 48 350 307 320 337 344 341 341 344 343 345 345 341 335 329 325 325 328 331 330 325 323 329 339 347 347 333 313 310 304 284 260 239 228 229 238 243 242 239 239 241 243 245 245 246 247 248 249 250 250 251 251 251 251 252 253 253 253 252 253 255 256
221 224 239 256 272 240 214 278 306 326 341 324 230 218 309 338 337 340 346 345 347 352 348 346 346 329 320 318 323 333 337 337 340 342 340 339 339 335 332 332 330 325 322 324 324 317 313 317 326 336 340 338 331 321 307 292 285 282 271 252 238 240 244 243 243 244 245 247 247 248 249 250 251 251 252 252 252 252 252 252 252 252 252 252 253 255 255
234 230 236 271 270 221 349 323 319 330 2 210 235 301 329 332 331 338 344 340 343 350 345 336 328 323 323 324 325 330 333 334 337 339 338 336 335 333 328 326 331 331 326 323 322 316 310 311 317 326 331 329 327 324 315 304 294 285 279 273 265 261 262 259 252 248 248 250 251 252 253 252 251 251 253 253 252 252 252 251 251 251 252 252 252 254 254
162 220 238 264 252 136 32 359 348 48 176 267 306 319 323 329 339 339 335 330 333 336 333 328 325 320 320 322 324 326 329 329 329 333 335 333 332 335 334 327 324 327 328 329 327 321 314 309 309 316 321 319 317 317 315 307 300 292 285 280 277 275 271 266 261 257 255 256 258 258 258 255 253 253 253 252 252 251 250 249 249 250 251 251 251 252 253
156 194 220 214 179 143 45 22 258 262 286 296 311 316 313 318 329 329 323 318 318 321 322 321 318 314 312 313 316 319 320 320 322 326 328 328 328 331 335 330 321 318 320 325 329 328 319 311 311 316 319 315 312 312 311 306 301 296 290 283 279 276 272 267 263 262 261 262 263 263 262 259 256 255 253 252 251 250 249 248 248 248 249 249 248 249 251
199 214 239 243 248 280 298 263 260 290 294 285 291 303 306 311 315 315 315 312 310 310 311 310 308 308 306 304 306 309 310 309 312 315 317 321 323 325 330 329 322 315 314 317 323 327 323 313 309 313 317 315 311 309 307 303 299 295 288 282 278 274 271 270 267 264 263 263 264 266 265 262 258 255 253 251 249 248 247 246 246 246 247 247 247 248 249
278 272 261 260 268 277 277 274 291 301 290 274 286 300 304 307 309 308 308 308 306 306 303 299 297 298 299 298 297 299 302 302 302 304 306 311 316 321 325 326 321 316 314 313 314 320 324 319 308 305 311 315 313 310 307 301 297 294 288 282 279 275 272 271 270 269 269 267 265 266 266 264 260 256 252 250 249 247 246 245 245 246 246 246 246 247 249
294 288 257 242 250 260 272 289 297 292 279 280 294 303 305 307 308 308 306 304 303 300 295 293 293 293 293 294 293 293 295 296 295 296 298 300 306 313 319 322 321 319 318 315 311 313 319 322 315 308 309 312 313 313 310 304 300 298 295 288 282 278 277 276 275 276 276 274 272 270 268 265 262 258 253 249 247 246 245 244 244 244 244 243 244 246 248
205 260 266 263 266 272 281 288 285 275 286 301 306 308 309 310 311 310 309 306 303 298 292 290 291 292 291 291 290 290 292 293 292 291 291 293 296 302 311 316 316 316 319 318 311 308 313 319 319 314 311 310 312 312 310 307 305 304 302 298 291 286 284 284 283 282 280 278 277 276 273 269 264 259 255 250 245 244 245 245 245 244 243 243 244 246 249
253 280 277 273 277 281 278 265 253 270 303 312 313 313 315 316 316 315 312 307 303 299 295 292 291 290 289 288 287 287 287 288 288 287 286 287 289 293 302 310 311 311 315 316 311 306 308 313 318 319 316 312 310 310 309 307 307 308 309 306 300 293 288 287 288 288 284 279 277 278 278 276 269 261 257 254 249 247 247 248 248 248 248 249 250 252 252
269 257 252 246 251 273 268 255 260 285 303 310 311 312 315 320 321 319 315 310 305 299 294 292 290 288 287 288 287 284 281 281 283 283 283 283 284 286 292 302 306 304 306 310 310 307 305 307 312 318 320 317 313 312 310 309 309 310 311 311 307 302 296 291 289 292 290 284 278 277 279 281 277 268 260 256 253 251 250 251 251 252 252 254 257 258 256
235 242 252 248 231 249 270 280 286 293 302 307 305 306 312 319 320 318 315 311 307 301 296 292 290 289 288 288 287 283 279 277 276 277 278 279 281 282 284 292 300 299 298 302 307 305 302 304 306 310 315 319 319 316 312 311 310 310 310 310 308 306 303 297 293 293 293 290 285 281 279 281 281 274 263 255 252 251 251 251 252 254 254 256 259 259 258
233 248 262 262 248 255 274 289 292 293 298 301 300 302 310 315 316 316 313 309 306 302 298 293 290 289 288 287 286 283 280 276 273 273 274 276 276 275 275 281 293 297 293 294 301 305 303 300 303 305 309 316 322 322 318 314 311 310 308 307 305 304 303 302 297 293 293 293 290 284 280 281 281 274 263 255 253 252 250 249 249 251 253 254 254 255 256
239 249 261 266 263 267 277 283 284 287 293 298 301 303 309 314 315 312 308 304 301 298 293 290 288 288 287 286 284 282 280 276 273 273 274 275 273 268 266 272 285 293 290 288 292 300 304 302 302 305 307 311 319 324 323 317 313 310 306 302 300 299 300 301 297 292 291 293 289 281 277 278 278 272 261 254 253 252 251 250 249 249 250 252 252 251 252
242 249 259 267 268 269 272 273 278 287 294 299 303 306 312 316 315 310 305 302 299 296 292 288 287 287 288 286 283 282 279 276 274 274 274 273 270 263 259 265 278 286 286 284 285 291 300 306 304 303 306 311 317 322 324 320 314 309 304 300 298 297 296 296 294 290 290 291 287 280 276 274 273 270 263 259 258 256 254 252 250 249 250 251 251 250 250
237 243 249 254 260 267 272 275 281 289 294 298 302 308 315 318 316 312 309 304 301 299 295 290 287 286 286 284 282 280 277 273 272 273 272 271 267 260 256 263 274 279 280 281 282 284 291 303 304 301 305 312 315 318 322 322 317 309 303 298 297 297 297 297 297 296 294 292 288 282 276 273 271 269 265 261 260 258 256 255 254 253 253 252 251 250 249
229 235 237 240 253 271 285 290 287 285 289 296 301 306 313 318 318 315 311 306 303 302 297 291 287 284 282 281 279 277 273 269 266 266 268 268 264 257 255 261 269 274 276 278 278 279 285 295 299 297 301 312 317 317 319 322 321 316 307 299 295 295 296 297 299 300 297 294 291 285 278 272 271 272 269 262 256 255 255 256 256 255 255 254 253 251 250
223 230 237 244 257 276 289 287 281 282 288 297 301 304 312 320 321 316 311 308 307 305 301 296 291 286 283 280 277 273 270 267 263 261 265 266 260 255 257 261 266 272 274 272 273 278 284 288 291 293 296 305 315 320 322 325 325 322 314 305 297 293 291 292 294 294 292 290 290 289 282 273 268 270 271 265 255 249 249 250 252 253 252 252 253 252 251
222 229 239 249 260 273 277 278 283 288 293 299 300 302 312 322 322 316 312 310 307 305 304 301 296 291 286 282 277 273 269 265 260 259 262 262 256 252 255 259 263 268 269 268 270 275 279 280 285 292 295 299 310 323 328 330 330 327 319 311 302 294 287 285 285 286 285 284 284 285 280 270 263 264 267 266 260 251 246 245 247 248 249 251 252 252 253
220 226 237 248 259 265 271 280 287 290 296 302 301 302 314 325 324 318 313 311 308 307 307 304 298 292 287 283 281 278 273 264 259 257 257 254 251 249 250 254 260 264 266 267 268 270 272 275 280 287 293 298 309 324 330 331 333 332 326 319 313 303 290 281 277 276 277 277 277 277 273 263 255 254 259 263 262 255 247 244 244 244 245 247 250 252 253
210 218 230 245 255 260 270 280 285 290 301 307 302 305 319 327 324 319 315 312 310 311 311 306 299 294 291 286 282 279 274 264 257 254 251 249 248 246 247 251 255 259 263 267 268 268 269 271 275 282 290 298 308 324 332 332 335 339 336 331 327 317 303 290 280 274 271 269 269 269 265 257 250 248 252 257 261 257 249 245 244 244 245 245 248 251 252
203 213 228 245 257 265 274 283 288 296 308 312 310 315 325 328 324 321 317 312 312 314 312 308 304 301 295 286 279 275 270 261 253 249 247 243 240 239 242 247 251 255 261 264 265 266 268 270 273 278 286 295 308 324 331 332 336 343 344 339 334 327 316 302 291 283 275 269 264 261 257 252 246 243 245 250 254 254 250 247 247 247 247 247 248 249 250
214 227 242 258 270 276 282 289 297 306 315 320 323 325 328 329 328 325 320 316 317 317 314 310 308 301 288 278 273 270 263 253 247 244 237 229 227 230 237 243 249 255 258 259 260 262 266 269 271 274 281 294 310 324 330 332 337 344 346 341 336 331 324 311 299 292 283 273 264 257 253 249 245 243 245 247 248 249 248 247 248 248 247 246 246 246 245
226 236 245 261 278 284 286 293 305 314 320 327 332 332 331 332 331 328 325 325 325 323 320 318 314 299 279 271 268 263 257 250 242 231 221 215 216 224 234 242 249 252 252 252 255 260 265 268 269 269 276 294 311 320 327 333 339 343 344 341 335 332 328 319 307 299 290 280 270 261 257 253 250 249 251 252 251 250 248 246 245 244 244 244 243 242 242
223 231 241 265 292 298 293 296 308 318 326 332 336 335 334 334 333 333 335 337 333 328 328 333 337 327 273 265 262 255 249 238 218 201 198 202 209 219 230 238 244 247 247 249 254 260 264 266 266 265 269 288 309 315 324 337 342 342 342 338 332 329 327 321 311 301 292 285 277 268 263 260 257 256 257 257 254 253 250 246 244 243 243 242 241 239 237
217 229 250 291 309 301 292 296 308 321 332 338 339 337 336 337 339 341 344 344 340 336 338 351 21 65 99 138 163 143 138 147 153 158 169 183 198 211 222 230 235 240 244 248 253 258 262 264 265 264 266 283 304 311 323 341 347 343 339 334 329 328 326 320 312 300 289 281 276 271 267 264 262 262 263 263 260 257 253 248 245 241 239 236 234 232 230
215 231 268 300 300 291 290 298 311 326 336 339 340 340 341 342 344 347 348 347 347 350 358 11 36 70 93 104 101 94 92 90 92 108 128 147 170 197 213 221 228 236 247 254 260 265 269 270 271 270 271 284 304 312 325 344 350 345 338 335 333 332 329 321 312 301 285 273 266 262 259 256 254 255 257 257 256 253 248 243 238 234 230 226 224 224 224
224 242 266 279 284 286 286 293 315 334 341 339 340 344 346 347 350 355 354 350 351 1 15 28 43 67 85 92 90 87 83 76 71 79 92 101 109 123 142 170 213 250 270 280 285 285 283 283 284 282 282 292 308 315 327 344 349 343 340 341 340 339 336 328 319 304 282 261 249 244 237 234 233 232 227 227 232 235 235 231 227 224 222 220 219 219 219
233 245 256 265 277 283 281 296 330 345 342 337 340 346 349 349 354 0 360 355 356 5 19 32 45 59 67 74 86 99 104 102 102 101 101 106 106 85 68 54 36 16 350 322 312 308 303 301 297 289 287 298 312 320 329 340 342 340 344 348 348 348 347 342 330 311 278 246 229 217 204 199 200 198 192 192 202 210 214 213 210 211 214 215 211 209 209
233 238 246 258 274 281 281 302 336 346 340 337 342 350 352 351 355 1 1 357 358 8 22 31 40 52 61 65 72 82 91 98 109 115 115 112 96 68 51 41 31 21 9 349 332 323 316 314 304 291 291 303 319 329 333 333 328 331 350 1 0 1 6 12 12 11 49 171 171 159 147 155 166 167 159 152 158 170 176 176 179 186 195 199 196 195 197
225 230 241 259 273 276 276 294 334 351 341 336 343 353 356 355 356 0 359 353 352 5 26 35 40 52 65 69 69 72 73 73 76 81 85 86 78 64 52 42 31 20 8 358 353 346 333 325 311 293 297 317 338 347 341 330 319 326 9 32 30 27 33 52 70 81 94 107 111 106 98 105 135 146 138 123 115 123 138 147 151 157 166 171 174 176 180
220 226 244 259 261 258 260 273 326 355 340 335 347 358 360 358 0 4 5 2 3 10 27 41 48 56 63 69 74 75 71 66 66 66 63 63 65 60 49 43 38 30 17 10 19 27 26 24 9 328 319 338 358 355 336 319 305 320 58 75 76 67 60 71 84 92 97 100 102 104 103 99 102 118 125 115 101 100 111 121 126 131 140 150 155 158 160
210 223 246 248 240 241 249 259 310 353 337 336 351 1 2 1 5 7 4 7 16 26 36 44 49 53 56 59 63 66 65 64 65 63 58 54 50 44 35 33 40 42 39 39 45 46 44 43 44 31 1 356 6 1 334 304 219 124 104 98 96 90 83 84 90 93 94 93 94 98 102 101 99 100 106 111 105 97 98 102 105 107 113 126 135 139 140
205 220 238 229 221 226 235 252 319 358 337 331 350 4 7 7 8 7 5 16 34 47 51 51 52 53 55 56 57 58 61 64 65 63 60 54 47 38 30 27 35 41 43 50 59 59 56 53 57 62 56 43 40 56 100 130 126 118 112 108 105 101 97 95 94 92 90 91 91 93 96 100 101 100 101 105 108 106 100 99 100 98 99 106 114 121 124
198 201 205 206 210 216 225 250 316 358 347 334 352 7 13 12 12 16 23 37 51 56 53 52 53 54 56 60 62 64 67 69 68 66 64 61 56 48 41 39 41 42 41 48 59 65 65 65 69 75 77 80 90 104 113 116 115 114 112 110 109 107 104 102 101 98 95 94 95 96 97 99 100 99 99 101 102 103 103 105 106 102 99 100 104 109 114
176 175 176 185 197 204 214 242 304 26 30 355 355 10 20 24 29 37 42 49 55 56 54 53 55 54 54 56 59 61 65 68 67 65 63 62 61 58 53 49 50 52 54 58 63 64 64 67 71 74 78 87 97 101 104 108 112 112 110 107 106 106 104 103 102 102 102 102 102 103 102 101 100 100 101 102 101 101 102 104 106 108 108 107 106 107 108
156 164 165 170 176 173 175 216 300 41 41 7 356 14 27 34 44 52 53 52 56 58 58 58 59 60 58 56 55 56 58 61 62 62 61 59 59 59 56 56 59 62 64 66 67 66 64 66 70 75 81 89 95 98 99 103 106 108 108 105 104 105 104 103 103 104 104 105 105 105 106 106 106 106 106 105 104 105 106 105 106 109 111 108 104 103 102
143 148 148 154 158 149 143 170 291 38 47 29 15 28 37 43 52 59 59 58 59 60 59 59 62 64 63 60 58 57 55 55 56 58 59 60 63 65 63 61 63 65 67 69 70 69 68 69 73 78 83 87 91 94 95 96 98 101 103 104 104 104 105 105 106 107 107 107 107 106 106 106 106 106 105 104 103 104 106 104 103 104 106 104 101 98 97
134 131 132 144 152 146 145 173 294 34 48 47 44 50 55 61 67 70 69 66 64 62 59 59 62 64 64 62 61 59 55 53 53 53 52 53 58 64 69 70 68 66 66 68 70 72 73 74 75 79 83 86 88 90 91 91 92 94 95 96 97 99 100 101 102 102 101 101 101 100 100 99 98 97 97 96 96 96 97 96 93 92 93 93 93 91 90
123 119 121 132 143 145 149 172 96 57 56 56 66 76 79 80 81 79 76 73 71 69 66 64 62 60 58 56 56 56 56 55 53 51 51 50 50 53 61 69 71 69 67 67 68 70 72 72 73 75 79 82 85 87 88 88 89 89 90 90 91 92 93 94 95 95 94 94 95 95 95 97 97 96 96 96 96 95 95 95 93 90 89 89 89 88 86
118 116 119 128 137 140 143 148 102 76 66 61 74 93 97 92 87 85 85 82 77 73 69 66 62 58 55 52 51 54 58 59 58 55 54 53 52 51 52 56 61 64 66 66 66 67 68 69 69 71 73 76 79 81 83 84 84 84 84 85 86 87 88 89 90 91 92 92 93 94 95 96 97 97 98 98 98 97 96 96 95 94 93 91 90 89 88
Height
1534 1532 1531 1531 1531 1531 1530 1529 1528 1525 1522 1522 1522 1524 1521 1521 1528 1524 1512 1512 1515 1508 1503 1502 1500 1498 1495 1493 1492 1489 1486 1483 1481 1479 1475 1472 1472 1471 1471 1472 1471 1471 1471 1473 1475 1478 1481 1484 1486 1488 1490 1492 1495 1497 1498 1501 1502 1504 1507 1509 1511 1513 1515 1517 1519 1521 1524 1527 1529 1531 1534 1536 1538 1540 1542 1544 1546 1549 1550 1552 1554 1556 1558 1560 1561 1562 1563
1533 1531 1531 1530 1531 1532 1530 1529 1527 1524 1522 1521 1520 1519 1517 1518 1519 1515 1510 1512 1512 1508 1506 1504 1502 1502 1499 1496 1493 1491 1488 1486 1485 1483 1481 1479 1477 1476 1476 1477 1476 1475 1474 1473 1474 1477 1479 1482 1484 1486 1487 1489 1492 1494 1496 1499 1501 1503 1505 1507 1509 1510 1512 1513 1516 1519 1521 1524 1526 1528 1530 1532 1534 1537 1539 1541 1543 1545 1546 1548 1550 1552 1554 1556 1557 1558 1560
1535 1532 1531 1531 1531 1531 1530 1528 1525 1523 1521 1519 1517 1516 1515 1515 1515 1511 1510 1512 1510 1507 1506 1505 1504 1504 1500 1496 1494 1493 1492 1490 1488 1487 1485 1483 1482 1481 1480 1480 1480 1478 1476 1475 1475 1476 1477 1480 1482 1484 1486 1487 1489 1492 1494 1496 1498 1501 1503 1504 1506 1508 1509 1511 1514 1516 1518 1520 1523 1525 1527 1529 1531 1533 1535 1537 1539 1541 1543 1544 1546 1548 1550 1551 1553 1555 1556
1538 1534 1533 1532 1530 1529 1528 1526 1523 1522 1521 1519 1517 1516 1514 1514 1514 1510 1509 1513 1515 1511 1508 1506 1505 1504 1501 1500 1498 1497 1496 1493 1491 1491 1489 1487 1486 1484 1482 1482 1482 1481 1479 1477 1477 1477 1478 1479 1480 1482 1484 1486 1488 1490 1492 1494 1496 1498 1500 1501 1503 1505 1506 1509 1511 1513 1515 1517 1519 1521 1523 1525 1527 1529 1531 1533 1535 1537 1538 1540 1542 1544 1546 1547 1548 1551 1552
1540 1537 1534 1532 1531 1532 1530 1525 1522 1521 1520 1519 1517 1516 1516 1515 1514 1513 1514 1519 1519 1515 1511 1509 1507 1505 1504 1504 1502 1501 1499 1495 1493 1494 1493 1490 1488 1486 1485 1484 1484 1483 1482 1481 1480 1480 1480 1480 1480 1481 1482 1483 1485 1487 1489 1491 1493 1496 1498 1499 1501 1502 1503 1506 1507 1509 1512 1514 1516 1518 1519 1521 1523 1525 1527 1529 1530 1532 1534 1536 1538 1540 1541 1542 1544 1546 1548
1541 1538 1534 1533 1536 1538 1530 1522 1520 1520 1519 1518 1517 1518 1518 1517 1515 1515 1517 1519 1518 1515 1513 1512 1510 1508 1507 1506 1505 1503 1501 1497 1495 1496 1495 1493 1490 1488 1487 1487 1486 1485 1484 1483 1482 1481 1481 1481 1481 1481 1481 1481 1482 1484 1486 1488 1491 1493 1495 1499 1502 1502 1502 1503 1505 1507 1510 1511 1512 1514 1516 1518 1520 1522 1523 1525 1526 1528 1530 1532 1534 1535 1536 1538 1540 1542 1544
1540 1538 1537 1539 1540 1534 1524 1519 1519 1518 1517 1517 1517 1518 1520 1519 1517 1516 1517 1517 1517 1516 1515 1514 1512 1511 1510 1507 1505 1503 1502 1499 1497 1497 1496 1493 1491 1490 1489 1489 1490 1488 1485 1484 1483 1482 1482 1482 1481 1481 1481 1481 1481 1482 1484 1486 1489 1490 1492 1495 1499 1502 1503 1503 1504 1505 1507 1508 1510 1511 1513 1515 1517 1518 1520 1521 1523 1525 1527 1528 1529 1530 1532 1534 1536 1537 1539
1540 1541 1542 1540 1533 1526 1521 1519 1518 1517 1518 1518 1518 1519 1519 1518 1518 1518 1517 1517 1517 1516 1516 1514 1512 1510 1509 1507 1505 1504 1504 1502 1500 1500 1498 1495 1492 1492 1491 1491 1492 1491 1488 1486 1484 1483 1483 1482 1481 1481 1480 1480 1480 1480 1481 1483 1485 1487 1489 1490 1492 1495 1499 1502 1502 1502 1504 1505 1507 1509 1510 1512 1513 1515 1516 1518 1520 1522 1523 1525 1526 1527 1528 1530 1531 1533 1534
1539 1542 1542 1536 1530 1528 1526 1523 1522 1522 1522 1522 1523 1523 1520 1517 1518 1518 1518 1518 1517 1516 1515 1513 1510 1508 1507 1507 1506 1506 1505 1504 1503 1502 1500 1496 1493 1493 1493 1493 1492 1492 1490 1487 1485 1484 1484 1483 1481 1480 1479 1479 1479 1479 1480 1481 1482 1484 1487 1488 1488 1490 1493 1496 1498 1499 1501 1502 1504 1505 1507 1508 1509 1511 1512 1514 1516 1518 1520 1521 1523 1524 1525 1526 1527 1528 1530
1536 1540 1541 1539 1538 1535 1530 1526 1525 1524 1524 1523 1524 1525 1523 1517 1517 1518 1517 1517 1516 1515 1514 1513 1510 1507 1506 1508 1509 1508 1507 1505 1503 1501 1499 1497 1495 1494 1494 1494 1492 1491 1490 1487 1486 1485 1484 1484 1483 1480 1478 1478 1478 1479 1480 1480 1481 1483 1484 1486 1487 1488 1489 1492 1495 1496 1498 1499 1500 1502 1503 1504 1505 1507 1509 1511 1512 1514 1516 1517 1518 1520 1521 1523 1524 1524 1525
1537 1539 1541 1540 1538 1533 1529 1526 1524 1522 1522 1522 1523 1527 1524 1517 1516 1518 1516 1515 1515 1513 1513 1513 1511 1510 1511 1511 1509 1508 1507 1506 1503 1502 1500 1498 1496 1495 1494 1493 1492 1491 1490 1488 1487 1485 1483 1483 1483 1481 1479 1478 1479 1479 1480 1481 1481 1482 1482 1483 1485 1486 1487 1489 1492 1493 1495 1496 1497 1498 1499 1501 1502 1503 1505 1507 1509 1510 1512 1513 1515 1517 1518 1520 1520 1521 1521
1536 1537 1538 1536 1532 1529 1528 1527 1524 1521 1520 1519 1524 1530 1525 1516 1516 1518 1516 1516 1515 1513 1512 1512 1511 1513 1514 1512 1509 1508 1507 1506 1504 1503 1501 1499 1497 1496 1494 1493 1491 1490 1490 1488 1487 1485 1483 1482 1481 1480 1479 1479 1478 1478 1480 1481 1480 1480 1480 1480 1481 1483 1485 1487 1489 1490 1491 1492 1493 1495 1496 1497 1499 1500 1501 1503 1505 1506 1508 1509 1511 1513 1514 1516 1516 1517 1518
1536 1536 1536 1533 1528 1526 1527 1526 1523 1521 1520 1521 1526 1527 1521 1516 1517 1517 1516 1516 1516 1515 1514 1512 1512 1512 1512 1511 1509 1508 1507 1505 1504 1503 1502 1501 1499 1497 1495 1493 1491 1489 1488 1487 1486 1485 1484 1481 1479 1478 1478 1478 1477 1477 1478 1479 1479 1478 1478 1478 1479 1480 1481 1483 1484 1486 1487 1489 1490 1491 1493 1494 1496 1497 1498 1499 1500 1502 1503 1505 1507 1508 1510 1511 1512 1513 1514
1538 1537 1537 1534 1529 1526 1525 1524 1521 1520 1522 1524 1523 1519 1517 1518 1518 1516 1516 1516 1515 1515 1515 1513 1512 1512 1510 1510 1508 1506 1505 1504 1502 1501 1500 1499 1499 1497 1494 1491 1489 1487 1486 1485 1484 1482 1481 1479 1477 1476 1476 1476 1476 1476 1477 1477 1477 1477 1477 1477 1477 1478 1479 1479 1480 1481 1483 1485 1486 1488 1489 1491 1492 1493 1494 1496 1497 1498 1499 1501 1502 1504 1505 1507 1508 1509 1510
1538 1540 1539 1535 1530 1525 1523 1522 1522 1521 1522 1522 1519 1516 1517 1518 1517 1516 1516 1515 1514 1515 1514 1513 1512 1510 1509 1509 1508 1505 1504 1502 1501 1499 1498 1497 1497 1495 1492 1489 1487 1485 1484 1483 1482 1479 1478 1476 1475 1474 1473 1473 1474 1474 1475 1475 1474 1474 1474 1475 1475 1476 1477 1477 1477 1477 1479 1481 1482 1483 1484 1486 1488 1489 1490 1492 1493 1494 1495 1497 1498 1499 1500 1502 1503 1504 1505
1535 1538 1534 1527 1522 1521 1521 1522 1522 1522 1521 1519 1518 1517 1516 1515 1516 1516 1515 1514 1514 1514 1512 1511 1511 1510 1508 1507 1507 1506 1504 1501 1500 1499 1497 1496 1495 1495 1493 1490 1487 1484 1482 1481 1479 1478 1476 1474 1473 1472 1471 1471 1470 1471 1471 1471 1471 1471 1471 1472 1473 1473 1474 1475 1475 1475 1476 1477 1478 1479 1480 1481 1483 1484 1486 1487 1488 1490 1491 1492 1493 1495 1496 1497 1499 1499 1500
1529 1528 1523 1518 1517 1518 1520 1520 1520 1519 1518 1518 1517 1516 1515 1514 1515 1514 1513 1512 1512 1512 1511 1510 1508 1507 1507 1505 1504 1504 1504 1501 1499 1498 1496 1495 1494 1493 1492 1490 1487 1484 1481 1478 1477 1475 1474 1472 1471 1470 1469 1469 1468 1468 1467 1468 1469 1469 1469 1470 1470 1471 1471 1472 1472 1472 1473 1474 1475 1475 1476 1477 1478 1479 1481 1483 1484 1485 1486 1488 1489 1490 1491 1492 1493 1494 1495
1525 1520 1516 1515 1516 1516 1517 1517 1517 1517 1516 1516 1515 1514 1513 1512 1512 1512 1511 1510 1509 1509 1510 1508 1506 1505 1504 1502 1500 1500 1501 1500 1499 1497 1496 1494 1493 1491 1490 1489 1486 1483 1479 1477 1474 1472 1471 1470 1470 1469 1468 1467 1467 1466 1465 1466 1467 1468 1468 1468 1468 1468 1468 1468 1468 1469 1469 1469 1470 1471 1472 1474 1474 1475 1476 1478 1479 1480 1482 1483 1483 1484 1485 1487 1488 1489 1490
1525 1520 1514 1513 1514 1514 1514 1514 1514 1514 1514 1513 1513 1512 1510 1510 1509 1509 1508 1507 1506 1506 1506 1505 1504 1503 1501 1499 1497 1495 1496 1496 1496 1495 1494 1492 1491 1490 1488 1486 1485 1482 1479 1476 1473 1470 1469 1469 1468 1468 1468 1467 1465 1465 1464 1464 1464 1464 1464 1464 1464 1464 1465 1465 1465 1465 1465 1465 1466 1467 1468 1469 1470 1471 1472 1473 1474 1475 1476 1477 1478 1479 1480 1482 1483 1484 1484
1522 1517 1512 1511 1512 1512 1511 1511 1511 1511 1511 1510 1509 1509 1508 1506 1506 1505 1504 1504 1503 1502 1501 1501 1500 1499 1498 1497 1494 1492 1491 1491 1491 1491 1491 1490 1488 1487 1486 1485 1483 1481 1479 1476 1474 1471 1469 1468 1467 1466 1465 1465 1464 1463 1462 1462 1461 1460 1460 1460 1460 1460 1460 1460 1461 1461 1461 1462 1462 1463 1464 1465 1465 1466 1467 1468 1469 1469 1470 1471 1472 1473 1475 1476 1477 1478 1479
1518 1514 1510 1510 1510 1508 1508 1508 1508 1508 1508 1507 1506 1505 1504 1503 1502 1501 1500 1500 1499 1498 1497 1497 1496 1495 1494 1494 1492 1489 1487 1486 1486 1487 1487 1486 1485 1484 1484 1483 1481 1480 1478 1476 1474 1472 1470 1468 1466 1464 1462 1462 1462 1461 1460 1460 1458 1457 1456 1456 1455 1455 1455 1455 1456 1456 1457 1458 1459 1459 1460 1460 1460 1461 1461 1463 1463 1463 1464 1465 1467 1468 1470 1471 1472 1473 1475
1516 1510 1507 1507 1508 1506 1505 1505 1506 1506 1506 1505 1503 1502 1501 1500 1499 1497 1496 1495 1494 1494 1493 1493 1492 1490 1489 1490 1490 1487 1484 1483 1483 1484 1483 1483 1482 1481 1480 1480 1479 1478 1477 1475 1473 1471 1469 1467 1465 1463 1461 1460 1459 1459 1458 1457 1455 1454 1453 1452 1452 1451 1451 1451 1451 1452 1453 1454 1455 1456 1456 1455 1455 1454 1455 1456 1457 1458 1459 1461 1462 1464 1466 1467 1468 1470 1471
1508 1503 1503 1504 1505 1504 1502 1503 1503 1504 1503 1503 1502 1501 1500 1498 1497 1495 1493 1491 1489 1488 1488 1488 1487 1485 1484 1485 1485 1484 1481 1479 1480 1480 1481 1480 1479 1477 1477 1476 1475 1475 1475 1474 1472 1470 1468 1466 1464 1462 1460 1458 1457 1457 1456 1454 1452 1451 1450 1450 1449 1448 1448 1448 1448 1448 1449 1450 1451 1452 1451 1451 1450 1450 1450 1451 1452 1453 1455 1456 1458 1460 1461 1462 1464 1466 1467
1501 1500 1501 1503 1502 1501 1500 1501 1501 1501 1501 1501 1499 1499 1498 1496 1494 1492 1491 1488 1486 1484 1482 1482 1482 1481 1479 1479 1479 1478 1476 1474 1474 1475 1476 1476 1476 1475 1474 1473 1472 1472 1472 1471 1470 1468 1466 1464 1462 1461 1459 1457 1455 1454 1452 1450 1449 1449 1448 1448 1447 1446 1445 1445 1445 1445 1445 1446 1447 1447 1447 1447 1447 1446 1446 1447 1447 1448 1450 1451 1453 1454 1455 1457 1460 1462 1463
1498 1499 1500 1501 1500 1499 1499 1499 1498 1498 1499 1498 1497 1496 1495 1494 1492 1490 1488 1486 1484 1482 1479 1477 1476 1476 1475 1474 1473 1472 1470 1468 1468 1468 1469 1471 1472 1471 1471 1470 1470 1469 1469 1468 1467 1466 1464 1462 1460 1458 1457 1455 1452 1450 1448 1446 1445 1445 1446 1446 1445 1443 1443 1443 1442 1443 1443 1442 1443 1443 1443 1443 1443 1442 1442 1443 1443 1445 1446 1447 1448 1450 1451 1453 1456 1458 1460
1496 1497 1499 1499 1498 1498 1497 1496 1496 1496 1496 1496 1494 1493 1492 1491 1489 1487 1485 1482 1480 1478 1476 1473 1472 1471 1471 1469 1468 1467 1466 1464 1463 1463 1463 1464 1466 1467 1467 1467 1467 1467 1466 1466 1465 1463 1461 1459 1457 1455 1454 1452 1449 1447 1444 1443 1442 1442 1443 1443 1441 1440 1440 1439 1439 1439 1439 1438 1438 1438 1438 1439 1439 1439 1438 1439 1440 1442 1443 1444 1445 1446 1447 1448 1451 1453 1455
1495 1496 1497 1497 1496 1495 1495 1494 1494 1494 1494 1493 1492 1490 1489 1488 1485 1483 1480 1478 1476 1474 1472 1470 1469 1467 1466 1465 1464 1463 1462 1461 1460 1459 1458 1459 1461 1462 1463 1464 1464 1464 1463 1463 1461 1460 1459 1457 1455 1453 1451 1449 1447 1444 1442 1441 1440 1440 1439 1438 1436 1435 1435 1434 1434 1433 1433 1434 1434 1434 1433 1434 1434 1434 1435 1435 1437 1438 1439 1440 1441 1442 1442 1444 1445 1448 1450
1493 1494 1494 1494 1493 1493 1493 1493 1492 1492 1491 1491 1490 1488 1487 1484 1482 1479 1476 1474 1472 1470 1468 1467 1466 1464 1462 1461 1460 1459 1458 1457 1456 1455 1455 1455 1457 1458 1459 1460 1459 1459 1459 1459 1458 1456 1455 1454 1452 1451 1450 1448 1445 1443 1441 1439 1438 1437 1436 1434 1432 1430 1430 1429 1428 1428 1428 1429 1429 1429 1429 1429 1429 1430 1430 1431 1432 1433 1434 1435 1436 1437 1438 1440 1442 1444 1445
1490 1491 1492 1492 1491 1491 1491 1491 1491 1490 1489 1489 1487 1486 1484 1482 1478 1476 1472 1470 1468 1466 1464 1463 1461 1459 1457 1456 1455 1454 1454 1453 1452 1452 1452 1452 1453 1454 1455 1455 1455 1455 1455 1454 1453 1452 1452 1451 1450 1449 1448 1446 1444 1441 1439 1437 1436 1434 1432 1430 1428 1426 1426 1425 1424 1423 1423 1423 1424 1424 1424 1424 1424 1425 1425 1426 1427 1427 1428 1430 1431 1432 1434 1436 1438 1440 1441
1488 1489 1490 1490 1490 1490 1490 1489 1488 1488 1487 1486 1485 1484 1482 1480 1476 1472 1469 1467 1465 1463 1460 1458 1456 1454 1453 1452 1450 1450 1449 1449 1449 1449 1449 1449 1450 1451 1451 1451 1451 1452 1452 1451 1450 1449 1448 1448 1447 1446 1445 1444 1442 1439 1437 1435 1433 1431 1428 1426 1424 1423 1422 1420 1419 1418 1418 1418 1418 1419 1419 1419 1419 1420 1421 1422 1422 1423 1423 1424 1424 1426 1428 1431 1433 1435 1436
1486 1488 1488 1488 1488 1488 1487 1487 1486 1486 1485 1484 1483 1481 1480 1477 1473 1469 1467 1464 1462 1460 1457 1454 1452 1450 1449 1447 1446 1445 1445 1445 1445 1445 1445 1446 1446 1447 1447 1448 1448 1449 1449 1448 1448 1447 1446 1445 1444 1443 1442 1441 1439 1436 1433 1431 1429 1427 1424 1422 1420 1418 1417 1415 1414 1413 1412 1412 1413 1413 1413 1413 1414 1415 1416 1417 1418 1418 1419 1420 1420 1421 1422 1424 1426 1429 1431
1485 1486 1487 1487 1486 1486 1486 1485 1484 1484 1483 1482 1481 1479 1477 1475 1471 1467 1464 1461 1459 1456 1453 1450 1448 1445 1444 1443 1442 1441 1441 1441 1441 1442 1442 1442 1442 1443 1443 1444 1445 1445 1446 1446 1446 1445 1444 1443 1442 1440 1439 1437 1435 1432 1430 1428 1425 1422 1420 1418 1416 1414 1412 1410 1409 1408 1408 1408 1408 1408 1408 1409 1410 1411 1411 1412 1413 1413 1414 1416 1417 1418 1419 1419 1420 1422 1425
1484 1484 1485 1485 1485 1484 1484 1483 1483 1482 1481 1480 1479 1477 1475 1473 1469 1466 1462 1459 1456 1453 1449 1446 1444 1441 1439 1438 1437 1436 1436 1437 1437 1438 1438 1439 1438 1439 1440 1441 1441 1442 1443 1443 1443 1442 1441 1440 1438 1437 1436 1434 1431 1429 1427 1425 1422 1419 1417 1414 1412 1410 1408 1407 1405 1404 1404 1404 1403 1403 1403 1404 1405 1406 1407 1408 1409 1409 1409 1410 1412 1413 1414 1415 1416 1419 1421
1482 1483 1483 1483 1483 1483 1482 1482 1481 1480 1479 1478 1477 1475 1473 1471 1467 1464 1461 1457 1454 1450 1447 1443 1439 1436 1434 1433 1432 1432 1432 1433 1434 1434 1434 1434 1435 1436 1437 1437 1438 1439 1440 1440 1440 1439 1437 1436 1434 1433 1432 1431 1428 1427 1425 1422 1420 1417 1414 1412 1410 1408 1406 1404 1402 1401 1400 1399 1398 1398 1399 1400 1400 1401 1402 1403 1404 1404 1405 1406 1407 1409 1409 1410 1412 1414 1417
1481 1482 1482 1482 1482 1481 1481 1480 1480 1479 1478 1476 1475 1473 1471 1469 1465 1462 1459 1456 1452 1448 1444 1439 1435 1431 1429 1428 1428 1428 1429 1429 1429 1430 1430 1431 1432 1433 1434 1435 1436 1436 1437 1437 1436 1435 1434 1432 1430 1430 1429 1428 1426 1424 1422 1420 1418 1415 1413 1410 1408 1405 1403 1401 1399 1397 1396 1395 1394 1394 1395 1396 1396 1397 1398 1399 1399 1400 1401 1402 1403 1404 1405 1405 1406 1408 1412
1480 1481 1481 1481 1480 1480 1479 1479 1478 1478 1476 1475 1474 1472 1470 1467 1464 1461 1458 1454 1450 1446 1442 1437 1432 1428 1426 1425 1425 1426 1426 1426 1426 1425 1426 1428 1430 1431 1432 1432 1433 1433 1433 1433 1433 1432 1430 1428 1427 1427 1426 1425 1424 1422 1420 1418 1416 1414 1411 1409 1406 1404 1401 1399 1397 1395 1394 1393 1392 1392 1393 1393 1394 1394 1395 1396 1396 1397 1398 1399 1399 1400 1400 1401 1402 1404 1408
1479 1479 1479 1479 1479 1479 1478 1478 1477 1477 1476 1474 1473 1471 1469 1466 1463 1460 1457 1453 1450 1446 1441 1437 1432 1428 1426 1424 1424 1425 1426 1427 1425 1424 1423 1425 1428 1429 1429 1430 1430 1430 1430 1430 1429 1428 1427 1425 1424 1424 1423 1422 1421 1420 1418 1416 1414 1412 1411 1409 1406 1403 1400 1398 1395 1394 1393 1392 1391 1391 1391 1391 1391 1391 1392 1393 1394 1394 1395 1396 1396 1396 1396 1398 1399 1401 1404
1478 1478 1478 1478 1478 1478 1478 1477 1477 1476 1475 1474 1473 1471 1468 1465 1462 1460 1457 1453 1450 1446 1442 1438 1435 1431 1428 1426 1426 1427 1428 1428 1427 1426 1425 1426 1427 1428 1428 1428 1428 1427 1427 1426 1426 1425 1424 1422 1421 1421 1420 1420 1419 1418 1416 1414 1413 1412 1410 1408 1405 1402 1399 1397 1395 1393 1392 1391 1390 1389 1389 1389 1389 1389 1390 1391 1392 1392 1392 1392 1392 1392 1393 1394 1395 1397 1398
1477 1477 1477 1477 1477 1477 1477 1476 1476 1475 1474 1473 1472 1470 1468 1465 1462 1460 1457 1454 1451 1447 1444 1440 1437 1434 1432 1430 1429 1429 1429 1429 1429 1428 1427 1427 1428 1428 1428 1427 1427 1426 1425 1424 1423 1422 1421 1419 1418 1418 1418 1417 1417 1416 1415 1413 1412 1411 1410 1407 1404 1401 1399 1397 1394 1393 1391 1390 1389 1388 1387 1387 1387 1387 1388 1389 1390 1390 1389 1388 1388 1388 1389 1390 1391 1393 1394
1476 1476 1476 1476 1476 1476 1476 1476 1476 1475 1474 1474 1472 1470 1467 1465 1462 1460 1457 1454 1451 1449 1446 1442 1440 1437 1435 1434 1432 1431 1431 1430 1430 1430 1429 1428 1429 1430 1429 1428 1426 1425 1424 1423 1421 1420 1419 1417 1416 1416 1415 1415 1416 1415 1414 1413 1412 1411 1409 1407 1405 1402 1400 1397 1395 1394 1393 1391 1389 1388 1387 1386 1386 1386 1387 1388 1388 1388 1387 1387 1387 1387 1388 1388 1389 1390 1392
1475 1475 1476 1476 1476 1476 1476 1476 1475 1475 1474 1474 1472 1470 1467 1465 1463 1461 1458 1455 1453 1450 1448 1445 1442 1440 1438 1437 1435 1434 1433 1432 1432 1431 1430 1430 1430 1431 1430 1428 1426 1425 1423 1422 1420 1419 1417 1415 1414 1414 1414 1414 1414 1415 1414 1413 1412 1411 1409 1407 1406 1404 1402 1399 1397 1396 1395 1393 1391 1390 1389 1388 1387 1386 1387 1388 1389 1388 1387 1387 1387 1387 1387 1388 1388 1389 1390
1474 1475 1475 1475 1475 1475 1475 1475 1475 1475 1474 1474 1472 1470 1468 1465 1463 1461 1459 1456 1454 1452 1449 1447 1445 1442 1440 1439 1438 1436 1434 1434 1433 1432 1431 1430 1430 1430 1429 1428 1427 1425 1423 1421 1419 1418 1416 1414 1413 1413 1413 1413 1413 1414 1414 1413 1413 1411 1409 1408 1407 1406 1404 1402 1399 1398 1397 1396 1393 1391 1392 1393 1392 1390 1389 1390 1392 1391 1390 1389 1389 1388 1388 1388 1388 1388 1388
1474 1474 1475 1475 1475 1475 1475 1475 1475 1475 1475 1474 1472 1470 1468 1466 1464 1462 1460 1458 1456 1453 1451 1449 1447 1444 1443 1441 1439 1437 1436 1435 1434 1433 1432 1431 1430 1430 1430 1429 1428 1426 1423 1421 1419 1417 1415 1414 1413 1413 1412 1413 1413 1413 1413 1413 1413 1411 1410 1409 1408 1407 1405 1403 1401 1400 1399 1398 1395 1393 1393 1395 1396 1396 1395 1395 1397 1397 1395 1394 1394 1395 1393 1390 1388 1388 1388
1474 1474 1474 1474 1474 1474 1474 1475 1475 1475 1475 1474 1472 1471 1469 1467 1465 1463 1461 1459 1457 1454 1452 1450 1449 1447 1445 1444 1442 1440 1438 1437 1436 1435 1434 1433 1432 1431 1431 1430 1429 1426 1424 1421 1419 1417 1416 1415 1414 1413 1413 1413 1413 1413 1413 1413 1413 1412 1411 1410 1409 1408 1406 1405 1404 1403 1402 1401 1400 1398 1397 1396 1398 1400 1399 1398 1401 1405 1405 1402 1401 1402 1401 1397 1392 1392 1393
1473 1474 1474 1474 1474 1474 1474 1475 1475 1475 1475 1474 1473 1471 1470 1468 1466 1464 1462 1460 1458 1456 1454 1452 1451 1449 1448 1446 1445 1443 1441 1440 1438 1437 1436 1435 1434 1433 1432 1431 1429 1426 1424 1422 1420 1418 1418 1417 1415 1414 1414 1413 1413 1414 1414 1413 1413 1413 1412 1411 1410 1409 1408 1407 1406 1406 1405 1403 1403 1402 1401 1401 1403 1404 1402 1399 1401 1407 1411 1411 1410 1411 1410 1405 1402 1401 1400
1473 1473 1473 1474 1474 1474 1474 1475 1475 1475 1475 1474 1473 1472 1471 1469 1467 1466 1464 1462 1461 1459 1457 1455 1454 1452 1451 1449 1448 1446 1444 1442 1440 1439 1437 1436 1435 1434 1433 1431 1429 1427 1425 1423 1421 1420 1420 1419 1417 1416 1415 1414 1414 1414 1414 1414 1414 1414 1414 1413 1411 1410 1409 1408 1408 1407 1407 1406 1406 1406 1406 1406 1407 1407 1406 1404 1404 1408 1412 1415 1415 1416 1417 1416 1414 1411 1409
1472 1472 1472 1473 1474 1474 1475 1475 1475 1475 1475 1475 1474 1473 1472 1470 1469 1468 1466 1465 1463 1461 1460 1458 1457 1456 1454 1452 1450 1448 1445 1443 1442 1440 1439 1438 1437 1436 1435 1433 1431 1430 1428 1426 1424 1423 1422 1420 1419 1418 1417 1416 1415 1415 1415 1416 1416 1416 1416 1415 1413 1411 1410 1409 1409 1409 1409 1409 1410 1410 1410 1410 1410 1410 1410 1410 1411 1413 1417 1419 1419 1418 1421 1424 1422 1418 1414
1471 1471 1472 1473 1474 1475 1475 1476 1476 1476 1476 1475 1475 1474 1473 1472 1470 1469 1468 1467 1466 1464 1463 1461 1460 1458 1456 1454 1452 1450 1447 1445 1443 1442 1442 1441 1439 1438 1437 1435 1434 1432 1431 1429 1427 1426 1424 1422 1421 1420 1420 1419 1418 1417 1418 1419 1419 1418 1418 1417 1415 1414 1412 1412 1412 1412 1412 1413 1413 1413 1413 1414 1414 1415 1415 1415 1415 1417 1422 1425 1424 1422 1424 1427 1426 1421 1419
1471 1471 1472 1473 1475 1476 1476 1476 1476 1476 1476 1476 1475 1475 1474 1473 1472 1471 1470 1469 1468 1467 1466 1464 1462 1461 1459 1457 1455 1453 1450 1448 1446 1445 1445 1443 1442 1440 1439 1438 1436 1435 1433 1431 1430 1428 1426 1425 1424 1424 1424 1423 1421 1421 1422 1423 1422 1421 1420 1419 1417 1416 1415 1415 1415 1416 1416 1416 1417 1417 1417 1418 1419 1420 1420 1421 1422 1422 1425 1429 1430 1429 1428 1429 1428 1426 1426
1471 1472 1472 1474 1475 1477 1477 1477 1477 1477 1476 1476 1476 1475 1475 1474 1473 1472 1472 1471 1470 1469 1468 1467 1465 1464 1462 1460 1458 1456 1454 1452 1450 1449 1447 1446 1445 1443 1441 1440 1438 1437 1436 1434 1433 1432 1430 1429 1428 1428 1428 1427 1426 1425 1425 1427 1426 1425 1423 1422 1420 1419 1419 1419 1420 1420 1421 1421 1421 1422 1422 1423 1425 1426 1427 1428 1428 1429 1430 1433 1435 1435 1434 1434 1433 1433 1433
1472 1473 1473 1475 1476 1478 1478 1478 1478 1477 1477 1476 1476 1476 1476 1475 1474 1474 1473 1473 1472 1471 1470 1469 1468 1466 1465 1463 1461 1459 1457 1456 1454 1452 1451 1449 1448 1446 1445 1443 1442 1440 1439 1438 1437 1436 1434 1433 1433 1433 1433 1432 1430 1429 1430 1431 1430 1429 1426 1425 1424 1424 1424 1424 1424 1424 1424 1425 1425 1426 1426 1427 1429 1431 1432 1434 1434 1435 1435 1436 1438 1439 1439 1439 1438 1438 1439
1474 1474 1475 1476 1477 1478 1479 1479 1479 1478 1478 1477 1477 1477 1477 1476 1475 1475 1475 1474 1474 1473 1472 1471 1470 1469 1468 1466 1465 1463 1461 1460 1458 1457 1455 1454 1452 1451 1449 1447 1445 1444 1444 1443 1442 1440 1439 1438 1438 1438 1437 1436 1435 1434 1434 1434 1434 1432 1431 1429 1429 1429 1428 1428 1428 1428 1428 1429 1429 1429 1430 1431 1432 1433 1435 1437 1438 1438 1439 1440 1440 1441 1442 1442 1442 1442 1442